Regional Weather Roundup
Issued by NWS

Home | Current Version | Previous Version | Graphics & Text | Print | Product List | Glossary On
Versions: 1 2 3 4 5 6 7 8 9 10 11 12 13 14 15 16 17 18 19 20 21 22 23 24 25 26 27 28 29 30 31 32 33 34 35 36 37 38 39 40 41 42 43 44 45 46 47 48 49 50
151
ASUS43 KFSD 100302
RWRSD

WEATHER ROUNDUP FOR SOUTH DAKOTA
NATIONAL WEATHER SERVICE SIOUX FALLS SD
900 PM CST FRI DEC 09 2016

NOTE: "FAIR" INDICATES FEW OR NO CLOUDS BELOW 12,000 FEET WITH NO
SIGNIFICANT WEATHER AND/OR OBSTRUCTIONS TO VISIBILITY.


SDZ001>005-009-010-012>017-100400-
NORTHWEST AND NORTH CENTRAL SOUTH DAKOTA

CITY           SKY/WX    TMP DP  RH WIND       PRES   REMARKS
BUFFALO          N/A     -4  -8  83 E6        30.23F WCI -16
FAITH            N/A     -7  -9  91 E6        30.38F WCI -20
MOBRIDGE       CLOUDY    -5 -12  72 N5        30.46F WCI -16
$$

SDZ012>016-024>037-041>051-057-063-072>074-100400-
SOUTHWEST AND SOUTH CENTRAL SOUTH DAKOTA

CITY           SKY/WX    TMP DP  RH WIND       PRES   REMARKS
RAPID CTY ARPT CLOUDY     1  -4  79 SE9       30.31F WCI -14
PIERRE         CLOUDY    -5 -10  79 N6        30.49S WCI -18
CUSTER         CLOUDY     1  -5  75 S5        30.04F WCI  -9
ELLSWORTH AFB  CLOUDY     1  -3  81 SE9       30.29  WCI -14
PHILIP         CLOUDY     1  -3  83 E7        30.44F WCI -12
PINE RIDGE     CLOUDY     2   0  91 SE5       30.30S WCI  -8
SPEARFISH      FAIR       0  -6  78 CALM      30.20F
WINNER         CLOUDY     8   4  83 NE10      30.45S WCI  -6
$$

SDZ004>011-016>023-039-040-100400-
NORTHEAST SOUTH DAKOTA

CITY           SKY/WX    TMP DP  RH WIND       PRES   REMARKS
ABERDEEN       CLOUDY    -3 -10  72 N8        30.55S WCI -18
WATERTOWN      CLOUDY     2  -3  80 N3        30.47S
SISSETON         N/A     -1  -6  79 NW8       30.53F WCI -15
$$

SDZ017-020-022-023-036>040-048>070-100400-
SOUTHEAST SOUTH DAKOTA

CITY           SKY/WX    TMP DP  RH WIND       PRES   REMARKS
SIOUX FALLS    LGT SNOW  13  10  88 CALM      30.48S FOG
HURON          CLOUDY     5   1  83 N3        30.54S
CHAMBERLAIN    CLOUDY     7   2  80 NE5       30.48S WCI  -2
MITCHELL       CLOUDY     6   2  83 N9        30.53S WCI  -8
YANKTON        CLOUDY    14   9  79 NE5       30.48S WCI   6
$$

ABBREVIATIONS USED IN REMARKS
   TC - TEMPERATURE IN CELSIUS
  WCI - WIND CHILL INDEX
   HX - HEAT INDEX
  VSB - VISIBILITY





USA.gov is the U.S. government's official web portal to all federal, state and local government web resources and services.